Regional Weather Roundup
Issued by NWS Charleston, SC

Current Version | Previous Version | Graphics & Text | Print | Product List | Glossary On
Versions: 1 2 3 4 5 6 7 8 9 10 11 12 13 14 15 16 17 18 19 20 21 22 23 24 25 26 27 28 29 30 31 32 33 34 35 36 37 38 39 40 41 42 43 44 45 46 47 48 49 50
000 ASUS42 KCHS 290325 RWRCHS REGIONAL WEATHER ROUNDUP NATIONAL WEATHER SERVICE CHARLESTON SC 1000 PM EST SUN DEC 28 2014 NOTE: "FAIR" INDICATES FEW OR NO CLOUDS BELOW 12,000 FEET WITH NO SIGNIFICANT WEATHER AND/OR OBSTRUCTIONS TO VISIBILITY. NOT ALL STATIONS ARE QUALITY CONTROLLED BY THE NATIONAL WEATHER SERVICE. USE DATA WITH CAUTION...ESPECIALLY DEWPOINT OBSERVATIONS. SCZ027-030-031-034>040-042>050-290400- ...SOUTHEAST SOUTH CAROLINA... CITY SKY/WX TMP DP RH WIND PRES REMARKS N CHARLESTON MOCLDY 62 60 93 CALM 30.08S WATERFRONT PRK N/A 63 N/A N/A SW7 N/A MOUNT PLEASANT FAIR 64 63 94 S3 30.08S PINOPOLIS N/A 66 64 94 VRB2 30.01R MONCKS CORNER CLOUDY 64 63 94 CALM 30.08S FOG SUMMERVILLE FAIR 63 63 100 CALM 30.09S FOG BEAUFORT MCAS MOCLDY 62 60 93 SE3 30.08R BEAUFORT ARPT FAIR 63 63 100 S3 30.08R HILTON HEAD IS CLEAR 63 61 94 S3 30.09S WALTERBORO FOG 63 N/A N/A CALM 30.08F VSB 1 ALLENDALE FAIR 61 61 100 CALM 30.06F FOG ...SOUTHERN MIDLANDS AND PEE DEE... CITY SKY/WX TMP DP RH WIND PRES REMARKS GEORGETOWN NOT AVBL KINGSTREE NOT AVBL ORANGEBURG MOCLDY 61 58 90 CALM 30.08R BARNWELL MOCLDY 61 61 100 CALM 30.07F AIKEN MOCLDY 59 59 100 NW5 30.09S FOG MANNING CLOUDY 64 N/A N/A CALM 30.08S COLUMBIA MOCLDY 58 57 97 CALM 30.06F FOG SUMTER CLOUDY 60 58 94 SW5 30.07R FLORENCE CLOUDY 62 59 90 SW3 30.07R MYRTLE BEACH MOCLDY 63 57 82 CALM 30.10R N MYRTLE BEACH MOCLDY 60 58 92 CALM 30.08R $$ GAZ063-065-086>088-099>101-113>116-118-119-134>141-150-290400- ...SOUTHEAST GEORGIA... CITY SKY/WX TMP DP RH WIND PRES REMARKS SAVANNAH ARPT PTCLDY 64 62 93 S6 30.08S HUNTER AAF CLEAR 63 63 99 S3 30.06S FORT STEWART CLEAR 63 61 94 CALM 30.07R FOG STATESBORO CLEAR 57 57 100 CALM 30.07F SYLVANIA PTCLDY 62 62 100 SE5 30.08S CLAXTON CLOUDY 61 61 100 CALM 30.07F ...CSRA...CENTRAL AND FAR SOUTHEAST GEORGIA... CITY SKY/WX TMP DP RH WIND PRES REMARKS THOMSON CLOUDY 61 61 100 N6 30.10S AUGUSTA-BUSH MOCLDY 56 55 97 CALM 30.06S AUGUSTA-DANIEL MOCLDY 61 59 93 CALM 30.07S SWAINSBORO FAIR N/A N/A N/A CALM 30.06F VIDALIA PTCLDY 63 63 100 CALM 30.06F EASTMAN FOG 60 60 100 CALM 30.08R VSB 1/2 HAZLEHURST FAIR 65 65 97 S3 30.05F ALMA CLEAR 65 61 87 S5 30.08R WAYCROSS CLEAR 65 64 96 SW5 30.09S JESUP FAIR 68 64 88 SW3 30.09S BAXLEY FAIR 64 63 94 S6 30.07S BRUNSWICK CLEAR 63 61 94 CALM 30.10S SAINT SIMONS CLEAR 63 60 90 CALM 30.10S $$ SCZ027-028-034-036>038-045-046-048>050-GAZ119-141-290400- ...LAKE AND SUPPLEMENTAL COASTAL OBSERVATIONS... STATION/POSITION TIME TEMP WIND PRES WAVE SWELL AIR SEA DIR/SP/G HT/PER HT/PER/DIR (UTC) (F) (DEG/KT/KT) (MB) (FT/S) (FT/S/D) UPR LAKE MARION NOT AVBL WINYAH BAY 0300 62 190/ 3 1018.0S LAKE MURRAY 0200 58 CALM / 1 1017.6S ACE BASIN NERRS 0300 60 CALM 1018.0S FORT PULASKI 0300 60 57 200/ 1/ 2 1019.0R SAPELO ISLAND 0300 63 170/ 8 1019.0S $$ ANZ835-935-AMZ111-154-330-350-352-354-370-450-454-472-290400- ...C-MAN AND BUOY OBSERVATIONS... STATION/POSITION TIME TEMP WIND PRES WAVE SWELL AIR SEA DIR/SP/G HT/PER HT/PER/DIR (UTC) (F) (DEG/KT/KT) (MB) (FT/S) (FT/S/D) BUOY 41004 0300 73 74 220/ 10/ 12 1018.4R 3/14 2/14 BUOY 41008 0300 62 59 200/ 8/ 10 1019.0S 3/14 2/ 70/14 FOLLY BEACH CMAN 0300 59 200/ 7/ 8 1019.0F CAPERS NEARSHORE 0200 58 230/ 8 N/A FRIPP NEARSHORE NOT AVBL STATION/POSITION TIME TEMP WIND PRES WAVE SWELL AIR SEA DIR/SP/G HT/PER HT/PER/DIR (UTC) (F) (DEG/KT/KT) (MB) (FT/S) (FT/S/D) 5E ST. MARYS GA 0300 61 N/A 2/13 2/ 90/13 FRYING PAN BUOY 0300 69 68 250/ 8/ 10 1019.3R 3/13 3/ 80/13 BUOY 41025 0300 66 1017.9R 3/11 CAPE LOOKOUT NC 0300 60 280/ 5/ 5 1018.1R BUOY 41002 0223 74 74 210/ 17/ 21 1020.7S 5/13 3/ 70/13 BUOY 41010 0300 76 77 180/ 8/ 10 1020.8F 5/14 5/ 90/14 ST AUGUSTINE FL 0300 67 190/ 3/ 3 1020.3R $$

USA.gov is the U.S. government's official web portal to all federal, state and local government web resources and services.